La Grange, GA

10:08 AM EDT on April 21, 2018 (GMT -0400)
Lagrange-Callaway

Weather History for KLGC - February, 2014

Change the Weather History Date:

Friday, February 7, 2014

  Actual Average Record
Temperature  
Mean Temperature 39 °F -  
Max Temperature 50 °F 55 °F 77 °F (1957)
Min Temperature 28 °F 32 °F 13 °F (1988)
Degree Days  
Heating Degree Days 26    
Moisture  
Dew Point 28 °F    
Average Humidity 72    
Maximum Humidity 94    
Minimum Humidity 40    
Precipitation  
Precipitation 0.00 in - - ()
Sea Level Pressure  
Sea Level Pressure 30.28 in    
Wind  
Wind Speed 1 mph (NNW)    
Max Wind Speed 7 mph    
Max Gust Speed -    
Visibility 10 miles    
Events      
Averages and records for this station are not official NWS values.
T = Trace of Precipitation, MM = Missing Value Source: NWS Daily Summary

Daily Weather History Graph

Daily Weather History Graph

Search for Another Location

Airport or City:

Astronomy

Feb. 07, 2014 Rise Set
Actual Time 7:31 AM EST 6:18 PM EST
Civil Twilight 7:05 AM EST 6:43 PM EST
Nautical Twilight 6:36 AM EST 7:13 PM EST
Astronomical Twilight 6:07 AM EST 7:42 PM EST
Moon 12:32 PM EST (2/7) 1:43 AM EST (2/7)
Length of Visible Light 11h 38m
Length of Day
10h 47m
First Quarter, 59% of the Moon is Illuminated
Feb 7
First Quarter
Feb 14
Full
Feb 22
Last Quarter
Mar 1
New
Mar 8
First Quarter

Hourly Weather History & Observations

Time (EST) Temp. Windchill Dew Point Humidity Pressure Visibility Wind Dir Wind Speed Gust Speed Precip Events Conditions
12:15 AM 29.7 °F - 27.5 °F 92% 30.28 in 10.0 mi Calm Calm - N/A   Clear
12:35 AM 29.3 °F 24.3 °F 27.5 °F 93% 30.28 in 7.0 mi WNW 4.6 mph - N/A   Clear
12:55 AM 29.1 °F - 27.1 °F 92% 30.28 in 10.0 mi Calm Calm - N/A   Clear
1:15 AM 29.8 °F - 27.7 °F 92% 30.28 in 10.0 mi Calm Calm - N/A   Clear
1:35 AM 28.6 °F - 27.0 °F 94% 30.28 in 7.0 mi Calm Calm - N/A   Clear
1:55 AM 28.9 °F - 26.6 °F 91% 30.28 in 10.0 mi Calm Calm - N/A   Clear
2:15 AM 28.8 °F 25.0 °F 27.3 °F 94% 30.28 in 7.0 mi NW 3.5 mph - N/A   Clear
2:35 AM 28.4 °F 24.6 °F 26.6 °F 93% 30.29 in 7.0 mi WNW 3.5 mph - N/A   Clear
2:55 AM 28.9 °F - 27.3 °F 94% 30.30 in 7.0 mi Calm Calm - N/A   Clear
3:15 AM 28.8 °F - 27.3 °F 94% 30.30 in 7.0 mi Calm Calm - N/A   Clear
3:35 AM 28.8 °F - 27.0 °F 93% 30.30 in 7.0 mi Calm Calm - N/A   Clear
3:55 AM 29.7 °F - 27.5 °F 92% 30.29 in 10.0 mi Calm Calm - N/A   Clear
4:15 AM 30.6 °F - 27.1 °F 87% 30.29 in 10.0 mi Calm Calm - N/A   Clear
4:35 AM 30.2 °F - 26.8 °F 87% 30.28 in 10.0 mi Calm Calm - N/A   Clear
4:55 AM 30.4 °F - 26.6 °F 86% 30.28 in 10.0 mi Calm Calm - N/A   Clear
5:15 AM 30.4 °F - 26.6 °F 86% 30.28 in 10.0 mi Calm Calm - N/A   Clear
5:35 AM 30.2 °F 26.7 °F 26.4 °F 86% 30.29 in 10.0 mi North 3.5 mph - N/A   Clear
5:55 AM 30.2 °F - 26.4 °F 86% 30.29 in 10.0 mi Calm Calm - N/A   Clear
6:15 AM 28.9 °F - 25.9 °F 88% 30.29 in 10.0 mi Calm Calm - N/A   Clear
6:35 AM 29.7 °F - 26.1 °F 86% 30.29 in 10.0 mi Calm Calm - N/A   Clear
6:55 AM 29.7 °F - 26.2 °F 87% 30.30 in 10.0 mi Calm Calm - N/A   Clear
7:15 AM 28.9 °F - 25.5 °F 87% 30.31 in 10.0 mi Calm Calm - N/A   Clear
7:35 AM 29.8 °F - 26.2 °F 86% 30.32 in 10.0 mi Calm Calm - N/A   Clear
7:55 AM 28.9 °F - 25.7 °F 88% 30.32 in 7.0 mi Calm Calm - N/A   Clear
8:15 AM 30.2 °F - 27.1 °F 88% 30.33 in 7.0 mi Calm Calm - N/A   Clear
8:35 AM 31.1 °F - 27.3 °F 86% 30.35 in 7.0 mi Calm Calm - N/A   Clear
8:55 AM 32.0 °F - 27.9 °F 85% 30.34 in 10.0 mi Calm Calm - N/A   Clear
9:15 AM 33.6 °F - 27.3 °F 78% 30.34 in 10.0 mi Calm Calm - N/A   Clear
9:35 AM 35.4 °F - 28.2 °F 75% 30.34 in 10.0 mi Calm Calm - N/A   Clear
9:55 AM 37.0 °F 34.5 °F 28.2 °F 70% 30.34 in 10.0 mi NNE 3.5 mph - N/A   Clear
10:15 AM 37.8 °F - 27.3 °F 66% 30.34 in 10.0 mi Calm Calm - N/A   Clear
10:35 AM 39.2 °F - 27.5 °F 63% 30.34 in 10.0 mi Calm Calm - N/A   Clear
10:55 AM 40.1 °F 38.0 °F 27.3 °F 60% 30.34 in 10.0 mi NE 3.5 mph - N/A   Clear
11:15 AM 41.0 °F 39.0 °F 27.5 °F 59% 30.34 in 10.0 mi North 3.5 mph - N/A   Clear
11:35 AM 42.6 °F 39.0 °F 27.7 °F 56% 30.34 in 10.0 mi North 5.8 mph - N/A   Clear
11:55 AM 43.7 °F 42.1 °F 27.7 °F 53% 30.34 in 10.0 mi East 3.5 mph - N/A   Clear
12:15 PM 45.1 °F 42.0 °F 27.9 °F 51% 30.33 in 10.0 mi North 5.8 mph - N/A   Clear
12:35 PM 45.9 °F - 27.1 °F 48% 30.32 in 10.0 mi Calm Calm - N/A   Clear
12:55 PM 47.3 °F - 27.7 °F 47% 30.30 in 10.0 mi NNW 4.6 mph - N/A   Clear
1:15 PM 48.6 °F - 27.7 °F 44% 30.30 in 10.0 mi Calm Calm - N/A   Clear
1:35 PM 48.2 °F - 26.8 °F 43% 30.28 in 10.0 mi Calm Calm - N/A   Clear
1:55 PM 49.1 °F - 26.8 °F 42% 30.28 in 10.0 mi North 4.6 mph - N/A   Clear
2:15 PM 49.8 °F - 27.0 °F 41% 30.27 in 10.0 mi NNW 5.8 mph - N/A   Clear
2:35 PM 49.8 °F - 27.5 °F 42% 30.26 in 10.0 mi North 4.6 mph - N/A   Clear
2:55 PM 50.4 °F - 28.0 °F 42% 30.26 in 10.0 mi WNW 4.6 mph - N/A   Clear
3:15 PM 50.4 °F - 27.5 °F 41% 30.25 in 10.0 mi Calm Calm - N/A   Clear
3:35 PM 50.2 °F - 27.1 °F 41% 30.25 in 10.0 mi NNW 6.9 mph - N/A   Clear
3:55 PM 50.4 °F - 27.1 °F 41% 30.25 in 10.0 mi NW 3.5 mph - N/A   Clear
4:15 PM 50.2 °F - 26.8 °F 40% 30.24 in 10.0 mi Calm Calm - N/A   Clear
4:35 PM 50.5 °F - 28.2 °F 42% 30.24 in 10.0 mi Calm Calm - N/A   Clear
4:55 PM 50.0 °F - 26.8 °F 41% 30.24 in 10.0 mi Calm Calm - N/A   Clear
5:15 PM 50.0 °F - 27.7 °F 42% 30.24 in 10.0 mi Calm Calm - N/A   Clear
5:35 PM 49.5 °F - 27.9 °F 43% 30.24 in 10.0 mi Calm Calm - N/A   Clear
5:55 PM 49.3 °F - 27.7 °F 43% 30.24 in 10.0 mi Calm Calm - N/A   Clear
6:15 PM 48.0 °F - 28.4 °F 47% 30.24 in 10.0 mi Calm Calm - N/A   Clear
6:35 PM 44.2 °F - 30.7 °F 59% 30.24 in 10.0 mi Calm Calm - N/A   Clear
6:55 PM 42.1 °F - 32.0 °F 67% 30.24 in 10.0 mi Calm Calm - N/A   Clear
7:15 PM 42.3 °F - 32.0 °F 67% 30.24 in 10.0 mi Calm Calm - N/A   Clear
7:35 PM 41.0 °F - 32.2 °F 71% 30.24 in 10.0 mi Calm Calm - N/A   Clear
7:55 PM 39.0 °F - 32.0 °F 76% 30.24 in 10.0 mi Calm Calm - N/A   Clear
8:15 PM 37.4 °F - 31.1 °F 78% 30.25 in 10.0 mi Calm Calm - N/A   Clear
8:35 PM 37.4 °F - 31.1 °F 78% 30.25 in 10.0 mi Calm Calm - N/A   Clear
8:55 PM 36.5 °F - 31.1 °F 81% 30.24 in 10.0 mi Calm Calm - N/A   Clear
9:15 PM 36.0 °F - 32.0 °F 86% 30.24 in 10.0 mi Calm Calm - N/A   Clear
9:35 PM 35.6 °F - 31.5 °F 85% 30.24 in 10.0 mi Calm Calm - N/A   Clear
9:55 PM 35.1 °F - 32.0 °F 89% 30.24 in 10.0 mi Calm Calm - N/A   Clear
10:15 PM 34.5 °F - 31.3 °F 88% 30.24 in 10.0 mi Calm Calm - N/A   Clear
10:35 PM 34.3 °F - 31.5 °F 89% 30.24 in 10.0 mi Calm Calm - N/A   Clear
10:55 PM 34.7 °F - 31.8 °F 89% 30.24 in 10.0 mi Calm Calm - N/A   Clear
11:15 PM 33.8 °F 30.8 °F 31.5 °F 91% 30.26 in 10.0 mi NW 3.5 mph - N/A   Clear
11:35 PM 33.6 °F - 31.6 °F 92% 30.26 in 10.0 mi Calm Calm - N/A   Clear
11:55 PM 35.1 °F - 31.6 °F 87% 30.25 in 10.0 mi Calm Calm - N/A   Scattered Clouds